This is the latest recevied weather packets stored in our database for station/object WB4E-13. If no packets are shown the sender has not sent any weather packets the latest 10 day(s).
| Time | Temp. | Humidity | Pressure | Rain* | Wind** | Luminosity | Snow |
|---|---|---|---|---|---|---|---|
| 1777765642 | 16.11° C | 44% | 1012 hPa | 0 mm | - | - | - |
| 1777765047 | 16.11° C | 41% | 1011.9 hPa | 0 mm | - | - | - |
| 1777764446 | 16.11° C | 42% | 1012 hPa | 0 mm | - | - | - |
| 1777763844 | 16.11° C | 43% | 1011.9 hPa | 0 mm | - | - | - |
| 1777763244 | 16.11° C | 42% | 1011.9 hPa | 0 mm | - | - | - |
| 1777762644 | 16.67° C | 41% | 1011.8 hPa | 0 mm | - | - | - |
| 1777762042 | 16.67° C | 44% | 1011.9 hPa | 0 mm | - | - | - |
| 1777761442 | 16.11° C | 44% | 1011.9 hPa | 0 mm | - | - | - |
| 1777760847 | 16.11° C | 43% | 1011.8 hPa | 0 mm | - | - | - |
| 1777760246 | 16.67° C | 41% | 1011.8 hPa | 0 mm | - | - | - |
| 1777759646 | 17.22° C | 39% | 1011.6 hPa | 0 mm | - | - | - |
| 1777759045 | 17.22° C | 39% | 1011.6 hPa | 0 mm | - | - | - |
| 1777758444 | 16.67° C | 41% | 1011.4 hPa | 0 mm | - | - | - |
| 1777757844 | 17.22° C | 39% | 1011.3 hPa | 0 mm | - | - | - |
| 1777757244 | 17.78° C | 36% | 1011.2 hPa | 0 mm | - | - | - |
| 1777756643 | 18.33° C | 37% | 1011.1 hPa | 0 mm | - | - | - |
| 1777756043 | 17.78° C | 40% | 1011.1 hPa | 0 mm | - | - | - |
| 1777755443 | 17.22° C | 38% | 1011.1 hPa | 0 mm | - | - | - |
| 1777754842 | 18.33° C | 37% | 1011 hPa | 0 mm | - | - | - |
| 1777754246 | 17.78° C | 38% | 1011.1 hPa | 0 mm | - | - | - |
| 1777753646 | 17.78° C | 37% | 1011.1 hPa | 0 mm | - | - | - |
| 1777753045 | 17.78° C | 36% | 1011.2 hPa | 0 mm | - | - | - |
| 1777752445 | 17.22° C | 37% | 1011.1 hPa | 0 mm | - | - | - |
| 1777751845 | 18.33° C | 35% | 1011.4 hPa | 0 mm | - | - | - |
| 1777751244 | 17.78° C | 34% | 1011.3 hPa | 0 mm | - | - | - |
* Rain latest hour (hover to see other rain measurements)
** Current wind speed in m/s (hover to see current wind gust speed)